Tracking 28518 objects as of 2-Mar-2024
HD Live streaming from Space Station
objects crossing your sky now

STARLINK-30832

Track STARLINK-30832 now!
10-day predictions
STARLINK-30832 is classified as:


NORAD ID: 58354
Int'l Code: 2023-177D
Perigee: 565.3 km
Apogee: 567.2 km
Inclination: 43.0 °
Period: 95.8 minutes
Semi major axis: 6937 km
RCS: Unknown
Launch date: November 18, 2023
Source: United States (US)
Launch site: AIR FORCE EASTERN TEST RANGE (AFETR)
Your satellite tracking list
Your tracking list is empty




NASA's NSSDC Master Catalog

Two Line Element Set (TLE):
1 58354U 23177D   24061.62555034  .00003027  00000-0  23903-3 0  9990
2 58354  42.9995  41.8572 0001380 270.8417  89.2267 15.02535575 17148
Source of the keplerian elements: AFSPC